Powrót do katalogu

FENGYUN 1C DEB

AktywnySSO
NORAD 31224·DEBRIS·🇨🇳 China

Wystrzelony May 10, 1999 z Taiyuan Satellite Launch Center

Loading…

Następne Przeloty (najbliższe 24 godziny)

TLE

ŚwieżeSource: Space-Track

Epoka: Sep 13, 2026, 04:43 UTC

1 31224U 99025BLE 26256.19665602  .00000709  00000-0  25744-3 0  9994
2 31224  98.3913 242.7144 0158096  72.6219 349.3911 14.29457571731711

Śledź FENGYUN 1C DEB w czasie rzeczywistym z AllMySat

Download on the App Store